[[{"header":{"parameterUnit":"m.s-1","parameterCategory":1,"la1":30.2992,"la2":30.254,"lo1":-89.0895,"lo2":-89.0443,"dy":0.0025,"dx":0.0025,"nx":19,"ny":19,"refTime":"2026-04-29T09:00:00:Z","depth":0,"parameterNumber":2,"parameterNumberName":"U-component_of_WINDS"},"data":[0,0,0,-3.8918,-3.8922,-3.9069,-3.9069,-3.9273,-3.9274,0,0,0,0,0,0,0,0,0,0,0,-3.8886,-3.8888,-3.8918,-3.8922,-3.9068,-3.9069,-3.9272,-3.9274,0,0,0,0,0,0,0,0,0,0,0,-3.8886,-3.8888,-3.889,-3.8922,-3.9068,-3.9069,-3.9272,-3.9155,0,0,0,0,0,0,0,0,0,0,-3.9009,-3.8992,-3.8887,-3.889,-3.8923,-3.9068,-3.9069,-3.9149,-3.9162,-3.9213,0,-3.9264,0,-3.9273,-3.9289,-3.929,0,0,0,-3.8913,-3.8981,-3.901,-3.889,-3.8925,-3.9068,-3.9,-3.9156,-3.9171,-3.9231,-3.9267,-3.9274,-3.9276,-3.9291,-3.9292,-3.9624,-3.9626,0,0,-3.8904,-3.8919,-3.9,-3.9021,-3.9001,-3.8995,-3.9004,-3.9165,-3.9204,-3.9268,-3.9278,-3.928,-3.9292,-3.9294,-3.9623,-3.9625,0,0,0,-3.8887,-3.8914,-3.8938,-3.9013,-3.9038,-3.9,-3.901,-3.9197,-3.9204,-3.928,-3.9282,-3.9294,-3.9296,-3.962,-3.9623,-3.9738,0,0,0,-3.8882,-3.8904,-3.8935,-3.8945,-3.9036,-3.912,-3.9039,-3.9193,-3.921,-3.9281,-3.9294,-3.9298,-3.9618,-3.9622,-3.973,-3.979,0,0,0,-3.8873,-3.8902,-3.8928,-3.8946,-3.901,-3.9117,-3.9133,-3.9196,-3.9212,-3.929,-3.9299,-3.9617,-3.9621,-3.9723,-3.9778,-3.9883,0,0,0,-3.8866,-3.9026,-3.893,-3.9108,-3.9009,-3.9187,-3.9132,-3.9263,-3.9344,-3.9295,-3.9618,-3.9623,-3.9721,-3.9771,-3.9875,-3.9974,-4.0017,0,0,-3.9076,-3.9052,-3.9155,-3.9074,-3.9273,-3.9163,-3.9378,-3.9437,-3.943,-3.9559,-3.9567,-3.9732,-3.9777,-3.9881,-4.0246,-4.028,0,0,0,-3.9226,-3.9302,-3.9351,-3.943,-3.948,-3.9527,-3.9552,-3.9574,-3.9683,-3.95,-3.9797,-3.9823,-3.9883,-3.993,-3.9959,-4.001,-3.9645,-3.9644,-3.9644,-3.9544,-3.9528,-3.9698,-3.97,-3.9777,-3.9801,-3.9861,-3.9894,-3.9854,-3.9924,-3.9963,-4.0187,-4.0243,-4.0264,-4.0317,-4.0012,-4.0013,-4.0013,-4.0014,-3.985,-3.9954,-3.9898,-4.0044,-4.0025,-4.0146,-4.0174,-4.0142,-4.0251,-4.0156,-4.0208,-4.0108,-4.0302,-4.0348,-4.0022,-4.0021,-4.002,-4.0019,-4.0018,-4.0058,-4.0105,-4.013,-4.0242,-4.0329,-4.0323,-4.0432,-4.0409,-4.0389,-4.044,-4.048,-4.0478,-4.0474,-4.046,-4.0461,-4.0462,-4.0462,-4.0463,-4.0464,-4.0265,-4.0289,-4.0384,-4.045,-4.0498,-4.0557,-4.0582,-4.0627,-4.0672,-4.0647,-4.0647,-4.0601,-4.0323,-4.0255,-4.0476,-4.0473,-4.0472,-4.0471,-4.047,-4.0585,-4.0509,-4.0656,-4.0704,-4.0779,-4.0868,-4.0838,-4.0932,-4.0966,-4.102,-4.0961,-4.076,-4.0733,-4.071,-4.0654,-4.0964,-4.0964,-4.0964,-4.0964,-4.0761,-4.0745,-4.0891,-4.0969,-4.1042,-4.103,-4.1195,-4.1215,-4.1223,-4.1243,-4.1194,-4.1117,-4.1094,-4.1081,-4.105,-4.0997,-4.1388,-4.1388,-4.1388,-4.0958,-4.0948,-4.1094,-4.1103,-4.116,-4.121,-4.1364,-4.1454,-4.1447,-4.1405,-4.1258,-4.124,-4.1115,-4.1075,-4.1031,-4.0983,-4.0886,0,0]},{"header":{"parameterUnit":"m.s-1","parameterCategory":1,"la1":30.2992,"la2":30.254,"lo1":-89.0895,"lo2":-89.0443,"dy":0.0025,"dx":0.0025,"nx":19,"ny":19,"refTime":"2026-04-29T09:00:00:Z","depth":0,"parameterNumber":3,"parameterNumberName":"V-component_of_WINDS"},"data":[0,0,0,-3.141,-3.1411,-3.143,-3.143,-3.1461,-3.1461,0,0,0,0,0,0,0,0,0,0,0,-3.1409,-3.141,-3.141,-3.1411,-3.143,-3.143,-3.1461,-3.1461,0,0,0,0,0,0,0,0,0,0,0,-3.1409,-3.141,-3.141,-3.1411,-3.143,-3.143,-3.1461,-3.1444,0,0,0,0,0,0,0,0,0,0,-3.1424,-3.1428,-3.141,-3.141,-3.1411,-3.143,-3.143,-3.1443,-3.1445,-3.1455,0,-3.1466,0,-3.1464,-3.1464,-3.1464,0,0,0,-3.1407,-3.1426,-3.1427,-3.141,-3.1411,-3.143,-3.142,-3.1444,-3.1446,-3.1457,-3.1467,-3.1467,-3.1465,-3.1464,-3.1464,-3.1536,-3.1536,0,0,-3.1406,-3.1415,-3.1426,-3.1429,-3.1428,-3.142,-3.1421,-3.1445,-3.1455,-3.1467,-3.1468,-3.1465,-3.1464,-3.1464,-3.1535,-3.1536,0,0,0,-3.1406,-3.1415,-3.1415,-3.1428,-3.1431,-3.1421,-3.1422,-3.1454,-3.1453,-3.1468,-3.1466,-3.1464,-3.1465,-3.1535,-3.1535,-3.1569,0,0,0,-3.1405,-3.1414,-3.1415,-3.1421,-3.1431,-3.1443,-3.1431,-3.1452,-3.1454,-3.1465,-3.1464,-3.1465,-3.1534,-3.1535,-3.1567,-3.1583,0,0,0,-3.1406,-3.1415,-3.1419,-3.1421,-3.143,-3.1443,-3.1443,-3.1452,-3.1453,-3.1464,-3.1465,-3.1534,-3.1535,-3.1565,-3.158,-3.1604,0,0,0,-3.1411,-3.145,-3.142,-3.1462,-3.143,-3.1464,-3.1443,-3.1468,-3.1481,-3.1465,-3.1534,-3.1535,-3.1564,-3.1578,-3.1602,-3.1624,-3.1635,0,0,-3.1465,-3.1457,-3.148,-3.1454,-3.1496,-3.146,-3.1506,-3.151,-3.1502,-3.1525,-3.1526,-3.1568,-3.158,-3.1603,-3.1694,-3.1702,0,0,0,-3.15,-3.1517,-3.1526,-3.154,-3.1544,-3.1547,-3.1543,-3.1544,-3.1562,-3.1516,-3.1583,-3.159,-3.1603,-3.1613,-3.1621,-3.1631,-3.1541,-3.1541,-3.1541,-3.159,-3.1578,-3.1616,-3.1605,-3.1618,-3.1612,-3.1621,-3.1621,-3.1606,-3.1622,-3.1628,-3.1685,-3.1697,-3.1703,-3.1713,-3.164,-3.164,-3.164,-3.164,-3.1667,-3.1688,-3.1665,-3.1694,-3.168,-3.1703,-3.1698,-3.1686,-3.1705,-3.1679,-3.169,-3.1662,-3.1712,-3.1721,-3.1643,-3.1642,-3.1642,-3.1642,-3.1642,-3.1723,-3.1731,-3.1732,-3.1748,-3.1762,-3.175,-3.1768,-3.1755,-3.1743,-3.1754,-3.1758,-3.1758,-3.1754,-3.1757,-3.1757,-3.1758,-3.1758,-3.1758,-3.1758,-3.1782,-3.1781,-3.1798,-3.1804,-3.1809,-3.1815,-3.1808,-3.1813,-3.1815,-3.1804,-3.1804,-3.1786,-3.172,-3.1703,-3.1761,-3.176,-3.176,-3.176,-3.176,-3.1863,-3.1842,-3.1869,-3.1874,-3.1878,-3.1892,-3.1875,-3.1885,-3.1887,-3.1896,-3.1875,-3.1829,-3.182,-3.1814,-3.18,-3.1879,-3.1879,-3.1879,-3.1879,-3.191,-3.1903,-3.1927,-3.1936,-3.1943,-3.193,-3.1959,-3.1953,-3.1944,-3.1944,-3.193,-3.1911,-3.1905,-3.1899,-3.1891,-3.1878,-3.1975,-3.1975,-3.1975,-3.1958,-3.1951,-3.1979,-3.1969,-3.1971,-3.1972,-3.1998,-3.2009,-3.1994,-3.1979,-3.1943,-3.1939,-3.1907,-3.1898,-3.1882,-3.187,-3.1845,0,0]}]]